Temperature
19 19 19 19 18 17 18 18 19 19 19 18 18 18 18 17 17 17 17 17 17 17 17 17 17 17 17 17 17 17 17 17 17 17 17 17 17 17 17 17 17 17 17 17 17 17 17 17 17
20 19 19 19 17 18 18 19 19 19 19 19 18 18 17 17 17 17 17 17 17 17 17 17 17 17 17 17 17 17 17 17 17 17 17 16 16 17 17 17 17 17 17 17 17 17 17 17 17
20 19 19 17 17 18 19 19 18 19 19 19 18 18 17 17 17 17 17 17 17 17 17 17 17 17 17 17 17 17 17 17 17 17 17 16 16 16 16 16 16 16 16 16 16 16 16 17 17
20 20 19 17 18 18 19 18 18 19 19 18 18 17 17 17 17 17 17 17 17 17 17 17 17 17 17 17 17 17 17 16 16 16 16 16 16 16 16 16 16 16 16 16 16 16 16 16 16
20 20 17 18 18 18 18 18 19 19 18 18 18 17 17 17 17 17 17 17 17 17 17 17 17 17 17 16 16 16 16 16 16 16 16 16 16 16 16 16 16 16 16 16 16 16 16 16 16
20 18 17 18 18 18 18 19 19 18 18 18 18 17 17 17 17 17 17 17 17 17 17 17 17 16 16 16 16 16 16 16 16 16 16 16 16 16 16 16 16 16 16 16 16 16 16 16 16
19 16 17 18 18 19 19 19 19 18 18 18 18 17 17 17 17 17 17 17 17 17 17 17 16 16 16 16 16 16 16 16 16 16 16 16 16 16 16 16 16 16 16 16 16 16 16 16 16
20 16 18 18 18 19 19 19 19 19 18 18 18 17 17 17 17 17 17 17 17 17 17 16 16 16 16 16 16 16 16 16 16 16 16 16 16 16 16 16 16 16 16 16 16 16 16 16 16
20 17 17 18 18 19 19 19 19 19 19 18 18 18 18 18 17 17 17 17 17 17 17 16 16 16 16 16 16 16 16 16 16 16 16 16 16 16 16 16 16 16 16 16 16 16 16 16 16
19 17 18 19 19 19 19 19 19 19 18 18 18 18 18 18 17 17 17 17 17 17 17 17 16 16 16 16 16 16 16 16 16 16 16 16 16 16 16 16 16 16 16 16 16 16 16 16 16
19 18 18 19 19 19 19 19 19 19 18 18 18 18 18 18 18 17 17 17 17 17 17 17 17 16 16 16 16 16 16 16 16 16 16 16 16 16 16 16 16 16 16 16 16 16 16 16 16
19 19 19 19 20 20 20 19 19 19 19 19 19 19 18 18 18 18 18 17 17 17 17 17 17 17 16 16 16 16 16 16 16 16 16 16 16 16 16 16 16 16 16 16 16 16 16 16 16
19 19 19 20 20 20 20 19 19 19 19 19 19 19 18 18 18 18 18 17 17 17 17 17 17 17 17 16 16 16 16 16 16 16 16 16 16 16 16 16 16 16 16 16 16 16 15 15 15
19 19 19 20 19 19 19 19 19 19 19 19 19 19 18 18 18 18 17 17 17 17 17 17 17 17 17 17 17 17 16 16 16 16 16 16 16 16 16 16 16 16 16 16 16 15 15 15 15
19 19 19 19 19 19 19 18 18 19 19 18 18 18 18 18 18 18 18 18 18 18 17 17 17 17 17 17 17 17 17 16 16 16 16 16 16 16 16 16 16 16 16 15 15 15 15 15 15
19 18 18 18 19 19 19 18 18 19 18 18 18 18 18 18 18 18 18 18 18 18 17 17 17 17 17 17 17 17 17 16 16 16 16 16 16 16 16 16 16 16 16 16 15 15 15 15 15
17 17 18 18 19 18 18 18 18 18 18 18 18 18 18 18 18 18 18 18 18 18 18 17 17 17 17 17 17 17 17 17 16 16 16 16 16 16 16 16 16 16 16 16 15 15 15 15 15
18 18 18 18 18 18 18 17 17 18 17 17 18 18 18 19 19 19 18 18 18 18 18 17 17 17 17 17 17 17 17 17 16 16 16 16 16 16 16 16 16 16 16 15 15 15 15 15 15
18 18 17 18 18 18 17 17 17 17 17 17 17 18 18 19 19 19 19 18 18 18 18 18 17 17 17 17 17 17 17 16 16 16 16 16 16 16 16 16 16 16 16 16 15 15 15 15 15
18 18 17 18 18 18 17 17 17 17 17 17 17 18 18 19 19 19 19 18 18 18 18 18 18 17 17 17 17 17 17 17 16 16 16 16 16 16 16 16 16 16 16 16 15 15 15 15 15
18 18 18 18 18 17 17 17 17 17 17 17 18 18 18 19 19 19 19 19 19 18 18 18 18 18 17 17 17 17 17 16 16 16 16 16 16 16 16 16 16 16 16 15 15 15 15 15 15
18 18 18 18 17 16 17 16 17 16 16 17 17 18 19 19 19 19 19 19 19 19 19 18 18 18 17 17 17 17 17 16 16 16 16 16 16 16 16 15 15 16 15 15 15 15 15 15 15
18 18 18 17 17 16 16 16 16 16 17 17 17 18 19 19 19 19 19 19 19 19 19 18 18 18 17 17 17 17 16 16 16 16 16 16 16 16 15 15 15 15 15 15 15 15 15 15 15
18 18 17 15 15 16 16 16 16 16 17 17 17 18 19 19 19 19 19 19 19 19 19 18 18 18 18 17 17 17 16 16 16 16 16 16 16 16 15 15 15 15 15 15 15 15 15 15 15
17 16 16 16 15 16 16 16 16 17 17 17 17 18 18 19 19 19 19 19 19 19 19 18 18 18 18 17 17 17 17 16 16 16 16 16 16 16 15 15 15 15 15 15 15 15 15 15 14
17 16 16 16 16 15 16 16 17 17 18 18 18 18 19 19 19 19 19 19 19 19 19 18 18 18 18 17 17 17 17 16 16 16 16 16 16 16 15 15 15 15 15 15 15 15 14 14 14
17 16 16 15 16 15 15 16 17 18 17 17 17 18 18 19 19 19 19 19 19 19 19 18 18 18 18 17 17 17 17 16 16 16 16 16 16 15 15 15 15 15 15 14 14 14 14 14 14
18 16 15 15 16 15 16 16 16 17 17 17 16 17 18 18 19 19 19 19 19 19 19 18 18 18 18 17 17 17 17 16 16 16 16 16 16 15 15 15 15 15 15 14 14 14 14 14 14
17 16 15 14 15 15 15 16 17 17 17 16 16 18 18 18 19 19 19 19 19 19 19 18 18 18 18 17 17 17 17 16 16 16 16 16 15 15 15 15 15 15 14 14 14 14 14 14 14
18 17 15 16 15 14 14 15 17 17 17 17 17 18 18 18 18 19 19 19 18 18 18 18 18 18 17 17 17 17 17 16 16 16 16 16 15 15 15 15 15 15 14 14 14 14 14 13 13
Wind_Speed
3 4 3 4 4 4 1 1 0 1 3 3 4 6 6 4 2 3 1 2 3 3 3 6 8 8 9 9 9 9 9 9 9 8 8 8 8 8 8 8 8 9 9 9 9 9 10 11 11
2 3 4 4 4 2 1 1 1 1 4 4 5 5 6 4 3 3 1 3 4 4 4 6 8 9 9 9 9 9 9 9 9 8 9 9 8 8 8 8 8 8 8 8 9 10 10 10 10
2 3 4 4 3 2 1 1 3 3 4 3 4 4 4 3 3 2 2 4 5 5 5 6 8 8 8 9 9 8 8 8 9 9 9 8 8 8 8 8 8 8 8 8 9 9 10 10 9
3 4 4 4 3 0 1 2 4 5 3 4 4 4 3 2 3 3 5 6 6 4 4 5 7 8 8 9 8 8 8 8 8 8 8 8 8 8 8 8 8 8 8 9 9 9 9 9 9
4 4 5 3 2 1 1 2 2 4 2 3 4 4 3 4 5 7 7 6 6 4 3 4 7 8 8 8 8 8 8 7 8 8 8 8 7 7 8 8 8 8 8 8 8 8 9 9 9
4 4 4 2 2 2 2 1 2 4 4 4 4 4 2 2 5 6 6 5 5 4 3 4 6 7 7 7 7 7 7 7 8 8 7 7 8 8 8 8 8 8 8 8 9 9 10 10 10
4 4 3 2 1 2 1 2 2 3 4 3 4 4 2 2 3 6 6 5 4 4 4 4 5 5 6 6 6 7 7 7 7 7 8 8 7 8 8 8 8 8 8 9 9 9 10 10 10
4 4 3 1 1 1 0 2 2 3 3 3 4 5 4 4 5 7 7 6 4 4 3 3 4 5 5 5 5 6 6 6 6 7 8 8 8 7 7 7 7 7 8 8 9 9 10 11 11
3 4 2 1 2 1 1 2 1 2 4 3 2 3 4 9 8 8 6 4 2 2 2 2 3 3 4 3 4 5 6 6 6 6 6 7 7 7 7 7 7 7 8 8 9 9 10 11 11
4 3 1 1 2 2 2 2 3 3 3 3 4 5 8 9 9 8 6 5 3 2 1 1 1 2 3 3 5 5 5 6 5 5 5 5 5 6 6 7 8 8 8 9 9 9 10 9 9
3 3 1 1 1 2 2 1 2 5 2 4 7 8 9 9 8 7 6 5 4 3 2 2 2 1 1 2 3 4 4 4 4 4 4 4 5 6 6 7 7 7 8 8 8 9 8 8 7
3 1 1 0 1 1 2 2 3 2 2 3 7 10 9 9 8 8 7 5 4 4 3 2 2 2 1 1 2 2 2 2 2 3 3 3 3 3 4 5 6 6 6 6 7 7 7 8 8
2 1 2 2 3 2 4 3 3 1 2 6 9 9 8 8 6 5 5 4 4 4 4 3 3 3 1 1 1 2 2 1 1 2 2 3 3 2 3 3 5 5 5 5 5 6 6 6 6
2 3 3 3 3 2 4 2 2 1 5 8 8 7 7 6 6 4 4 5 5 5 4 3 3 3 3 2 1 1 1 2 2 1 1 3 4 3 3 3 3 4 4 5 5 5 4 4 4
3 4 4 3 2 1 4 3 1 3 7 7 6 5 5 4 5 6 6 6 6 5 4 4 4 3 3 2 2 2 1 2 2 2 2 4 5 4 3 3 3 3 4 5 6 5 5 4 4
4 4 3 4 2 1 3 1 2 4 7 6 5 4 4 4 5 5 6 6 6 4 4 4 4 4 3 2 2 2 2 2 2 2 3 4 4 5 4 3 2 3 4 4 3 3 4 4 4
4 2 1 3 2 2 2 3 3 4 6 6 5 4 4 4 5 5 6 6 6 5 5 5 4 5 4 3 3 3 3 2 2 3 3 3 4 5 5 3 3 4 4 3 3 3 3 3 3
1 0 1 2 2 2 1 3 4 3 5 5 5 4 4 5 7 5 5 5 5 4 5 5 4 4 4 4 3 3 3 2 3 2 2 3 4 5 5 4 3 4 3 3 3 4 3 3 3
3 2 1 3 2 1 2 4 5 3 4 5 5 5 6 7 5 3 5 5 4 4 5 5 5 4 4 3 2 2 1 0 1 1 2 3 3 4 5 3 3 3 3 3 3 3 4 3 2
3 2 1 2 2 0 2 4 4 3 5 6 7 7 8 6 4 4 5 5 6 6 6 6 6 6 5 3 3 2 2 1 1 1 2 2 3 4 3 3 3 3 3 3 3 3 3 2 2
1 2 2 1 3 4 2 5 4 3 2 3 5 6 6 7 7 6 5 6 6 6 7 7 6 6 5 4 3 3 3 3 2 1 1 1 2 3 3 3 3 3 3 3 2 3 4 2 2
0 1 3 2 2 2 2 2 6 4 3 3 4 5 6 6 6 6 6 7 7 7 6 6 6 6 5 6 5 5 3 2 2 1 1 1 2 2 3 3 3 3 2 3 2 3 3 4 2
2 1 2 2 2 1 3 0 6 3 4 5 5 4 5 6 6 7 7 8 7 6 6 6 5 4 5 5 6 5 3 2 1 1 1 1 1 2 2 3 3 3 2 2 2 3 3 2 3
3 5 5 5 4 1 2 2 5 3 5 5 4 4 4 4 5 5 5 4 4 4 5 5 6 4 4 5 5 6 5 4 3 2 1 0 0 1 1 2 3 3 3 3 3 3 3 2 3
5 5 4 5 4 3 2 1 6 6 5 5 5 4 3 3 4 4 4 4 5 5 6 5 6 4 4 5 5 5 5 5 5 4 3 2 1 0 1 2 2 2 2 3 4 3 3 2 3
2 5 5 2 2 4 3 3 6 5 3 2 2 2 2 3 3 4 5 5 5 6 6 6 6 5 5 5 4 4 4 4 3 3 3 3 2 2 2 2 3 3 3 3 4 3 3 2 2
4 2 4 5 1 1 4 5 6 3 4 3 2 1 1 2 3 4 4 4 5 6 7 8 7 6 5 5 5 4 3 4 3 3 3 2 2 2 2 3 3 3 3 3 4 3 2 2 2
4 6 5 4 2 2 5 4 4 4 4 3 2 2 2 2 3 3 3 4 4 5 5 6 7 7 6 5 5 4 4 4 3 3 3 2 2 2 3 3 3 3 3 3 3 2 2 3 1
2 3 4 3 3 3 2 6 4 5 4 4 4 3 3 3 3 4 4 4 4 4 4 5 5 5 5 5 5 4 4 3 3 3 3 2 2 3 3 3 3 3 2 3 3 2 3 3 1
3 4 5 3 2 3 3 6 5 3 3 3 3 3 2 2 3 3 3 3 3 4 4 5 5 5 5 5 5 5 4 3 3 3 2 2 2 2 3 3 3 3 2 3 4 3 3 3 2
Wind_Direction
88 79 75 59 58 56 51 315 6 63 67 58 68 78 94 84 96 133 247 139 133 119 111 113 109 104 101 98 96 94 91 89 88 89 91 98 104 104 104 102 97 92 85 80 79 79 79 75 71
86 81 58 61 81 72 332 309 82 82 130 122 73 69 73 71 74 108 126 142 124 119 111 113 110 106 102 99 99 96 93 89 87 89 90 96 100 102 104 102 98 93 88 83 80 79 78 75 73
90 61 81 71 86 138 185 189 121 92 96 91 76 60 77 97 121 147 165 137 117 109 106 117 115 110 106 101 98 97 93 89 88 89 91 97 100 100 99 98 96 93 88 85 80 78 76 74 73
77 46 57 67 72 348 174 151 132 121 81 64 99 78 65 53 143 148 129 123 115 102 101 118 115 110 106 104 100 96 92 88 87 91 92 95 96 98 95 93 90 88 89 88 82 82 77 76 73
62 71 60 50 30 1 48 121 116 101 88 73 102 101 64 12 92 117 122 124 121 110 101 120 118 113 111 110 106 99 94 90 87 86 85 89 90 92 94 92 87 84 86 84 79 79 79 76 75
55 62 74 62 9 1 14 63 93 93 102 103 102 105 80 74 107 121 121 118 118 113 92 98 112 110 109 109 109 107 100 94 87 83 82 83 83 83 87 90 86 82 83 81 80 80 79 78 78
92 81 91 102 46 354 19 77 106 112 108 131 130 111 101 127 131 123 111 104 94 87 75 66 69 83 94 99 101 96 92 89 84 78 77 77 79 78 79 81 84 82 82 82 82 81 80 80 80
113 96 76 72 117 302 85 91 100 121 115 112 119 136 166 176 135 107 93 83 78 70 61 58 56 58 55 59 84 86 86 83 79 75 72 67 63 64 69 70 76 79 81 83 82 81 80 80 80
93 73 95 173 172 218 125 111 86 89 107 93 87 134 148 132 121 109 97 81 83 98 64 65 58 53 48 49 67 70 73 70 67 66 67 59 50 48 51 59 70 74 78 81 83 83 81 77 72
82 105 201 215 184 169 130 133 145 103 94 101 87 85 114 126 133 135 144 157 168 187 205 106 81 55 44 53 61 58 57 58 58 55 55 55 53 52 54 53 61 66 69 73 74 79 79 75 70
102 140 182 34 154 147 132 108 111 125 146 176 155 146 139 139 147 155 165 173 185 194 207 192 164 117 78 55 65 60 57 58 57 55 59 60 57 52 53 52 51 56 60 63 64 69 72 76 76
95 59 123 97 85 97 135 122 100 135 201 167 150 145 145 153 168 175 178 182 177 180 205 201 169 145 137 98 77 79 68 56 51 49 67 78 64 51 50 55 55 57 63 67 69 72 72 75 74
83 43 59 82 71 96 99 104 124 98 90 106 120 134 151 164 179 185 182 181 178 188 201 196 170 167 162 120 95 97 93 86 69 55 73 108 98 75 64 63 64 62 72 79 78 80 77 73 68
112 97 60 51 67 78 108 78 98 141 116 118 132 151 167 176 179 173 178 183 191 196 195 182 178 177 159 149 155 145 126 114 89 74 105 128 122 109 91 76 71 72 80 87 89 88 84 74 71
96 75 30 11 53 64 96 32 217 148 127 136 151 163 176 197 192 193 194 191 195 198 190 177 180 166 162 172 172 136 116 113 103 99 116 128 127 123 113 96 83 84 93 92 88 80 76 77 73
51 51 19 327 29 47 110 240 259 140 140 159 171 180 198 218 216 214 201 191 189 186 181 183 178 156 156 146 130 105 102 110 105 110 117 122 128 133 125 111 101 105 106 100 91 80 74 69 69
35 47 6 323 0 84 121 228 255 153 160 179 190 199 212 233 235 222 208 195 187 184 177 172 162 147 142 128 115 103 93 88 91 105 114 120 129 136 131 121 113 113 103 91 98 77 86 87 78
194 118 331 304 323 90 151 241 261 184 181 200 206 214 219 228 237 222 206 193 181 175 171 164 149 139 130 113 95 75 66 56 66 85 104 117 130 136 130 120 114 115 103 92 92 91 75 86 88
148 143 234 284 286 156 235 260 267 219 199 214 217 218 226 231 241 222 198 185 172 166 170 170 160 154 138 121 123 116 115 78 52 63 94 113 123 130 130 122 115 116 118 123 118 106 87 67 75
134 119 302 313 355 113 280 288 276 228 215 214 212 221 224 223 223 205 191 183 183 184 184 179 176 170 169 155 144 142 133 112 97 54 60 94 117 125 134 132 131 126 124 121 119 115 106 72 60
80 181 210 229 1 14 0 330 314 295 250 242 229 225 220 212 212 209 195 193 189 191 190 187 184 178 173 152 119 94 71 52 45 34 5 14 108 113 121 134 132 134 139 145 146 135 132 130 59
250 242 182 161 59 325 25 316 301 299 302 265 248 235 228 221 207 201 195 198 198 202 191 182 177 177 169 155 150 148 150 161 197 191 209 27 80 97 122 135 133 132 136 146 159 141 143 140 137
187 68 89 92 120 15 6 134 295 333 299 281 265 246 231 216 200 198 199 201 200 193 182 177 168 171 168 165 164 157 157 170 151 122 107 48 44 77 114 139 132 128 132 142 140 131 137 138 147
118 61 51 46 67 16 288 179 287 269 255 275 272 253 235 208 194 197 195 183 186 175 169 164 161 168 168 166 166 167 169 165 150 159 162 119 29 38 86 128 129 128 128 145 145 137 131 124 122
66 78 31 6 12 277 285 211 256 261 258 244 251 247 224 189 182 184 180 181 184 177 174 169 165 170 168 163 170 176 176 171 175 183 179 173 169 203 220 130 127 124 130 129 121 121 125 123 120
152 137 151 193 242 289 328 260 266 278 290 278 239 221 166 161 178 189 195 191 190 185 178 172 173 174 167 164 172 174 173 170 177 178 173 182 192 203 188 145 133 128 124 117 113 114 127 123 129
132 163 165 137 160 302 298 298 308 333 359 5 11 71 177 192 196 195 193 190 187 184 185 180 178 175 174 172 166 160 164 164 171 171 167 179 185 174 151 140 134 123 114 114 116 112 124 124 134
138 145 103 118 144 287 304 293 264 288 301 312 308 265 243 218 206 202 194 194 190 187 184 175 177 178 175 169 170 168 169 175 169 147 156 172 173 148 133 133 135 131 124 122 121 117 115 122 131
110 103 114 118 146 157 277 280 239 231 251 267 271 259 229 211 205 204 198 192 177 162 162 167 172 167 163 169 168 156 162 163 149 152 175 179 161 142 141 151 148 148 147 136 133 141 137 142 140
167 164 147 151 217 179 195 267 280 244 260 267 273 266 234 197 190 190 183 164 154 160 168 172 172 170 175 171 161 164 162 153 151 167 178 162 152 147 153 139 137 147 151 148 156 160 156 160 164
Height
1506 1507 1508 1510 1513 1521 1525 1521 1517 1517 1517 1518 1517 1518 1520 1523 1526 1532 1529 1527 1528 1529 1530 1530 1531 1531 1531 1531 1531 1531 1531 1532 1531 1531 1531 1531 1532 1532 1533 1533 1534 1534 1535 1535 1536 1536 1536 1536 1536
1507 1508 1510 1510 1518 1530 1527 1519 1518 1517 1517 1518 1519 1520 1521 1524 1525 1527 1527 1528 1529 1530 1531 1531 1532 1532 1532 1532 1532 1533 1533 1533 1533 1533 1533 1533 1533 1533 1534 1535 1535 1535 1536 1536 1537 1537 1537 1537 1538
1508 1509 1511 1513 1522 1528 1524 1518 1517 1517 1518 1518 1520 1522 1524 1526 1527 1528 1529 1529 1530 1531 1532 1532 1532 1533 1533 1533 1533 1534 1534 1534 1534 1534 1534 1534 1534 1535 1535 1536 1536 1537 1537 1538 1538 1538 1539 1539 1539
1510 1511 1512 1518 1523 1521 1519 1517 1516 1517 1519 1519 1521 1524 1525 1528 1528 1529 1530 1530 1531 1532 1533 1533 1534 1534 1534 1535 1535 1535 1535 1535 1535 1535 1535 1535 1536 1536 1537 1537 1538 1538 1538 1539 1539 1540 1540 1540 1540
1510 1511 1517 1524 1522 1519 1517 1517 1517 1517 1519 1521 1522 1524 1527 1529 1529 1530 1531 1532 1533 1533 1534 1535 1535 1535 1536 1536 1536 1537 1537 1537 1537 1537 1537 1537 1538 1538 1538 1539 1539 1539 1540 1540 1541 1541 1541 1541 1541
1511 1513 1525 1529 1524 1520 1518 1518 1518 1519 1521 1522 1524 1525 1528 1530 1530 1531 1532 1533 1534 1535 1535 1536 1536 1537 1537 1538 1538 1538 1538 1538 1538 1538 1539 1539 1539 1540 1540 1540 1541 1541 1542 1542 1542 1542 1543 1543 1543
1513 1518 1525 1526 1526 1522 1520 1519 1520 1520 1522 1523 1524 1526 1529 1530 1532 1533 1534 1535 1536 1537 1537 1538 1538 1538 1539 1539 1540 1540 1540 1540 1541 1541 1541 1541 1541 1541 1542 1542 1542 1543 1543 1543 1544 1544 1544 1545 1545
1513 1518 1524 1526 1526 1524 1521 1520 1521 1522 1523 1524 1525 1526 1529 1531 1532 1534 1535 1536 1537 1538 1539 1539 1540 1540 1541 1541 1541 1542 1542 1542 1542 1542 1543 1543 1543 1543 1543 1544 1544 1544 1545 1545 1546 1546 1546 1546 1547
1514 1522 1527 1525 1524 1523 1521 1521 1522 1523 1523 1525 1525 1527 1529 1531 1533 1534 1536 1537 1539 1540 1540 1541 1541 1542 1542 1543 1543 1543 1544 1544 1544 1544 1544 1545 1545 1545 1545 1546 1546 1546 1547 1547 1547 1548 1548 1548 1548
1515 1525 1524 1520 1520 1520 1521 1521 1522 1523 1524 1525 1526 1528 1529 1531 1533 1535 1536 1538 1540 1541 1542 1542 1543 1543 1544 1544 1545 1545 1545 1545 1546 1546 1546 1546 1546 1547 1547 1547 1548 1548 1548 1549 1549 1549 1550 1550 1550
1516 1521 1520 1519 1519 1520 1521 1522 1523 1524 1526 1526 1526 1528 1530 1532 1534 1536 1537 1539 1541 1542 1543 1543 1544 1545 1545 1546 1546 1547 1547 1547 1547 1548 1548 1548 1548 1548 1549 1549 1549 1550 1550 1550 1551 1551 1551 1551 1551
1518 1519 1519 1520 1520 1520 1521 1522 1523 1524 1526 1526 1527 1529 1530 1532 1534 1536 1538 1540 1541 1543 1544 1544 1545 1546 1546 1547 1547 1548 1548 1549 1549 1549 1549 1549 1550 1550 1550 1551 1551 1551 1552 1552 1552 1552 1552 1553 1552
1519 1520 1520 1520 1520 1521 1521 1523 1524 1525 1526 1527 1528 1530 1531 1533 1535 1537 1539 1541 1542 1543 1544 1545 1546 1547 1548 1548 1549 1549 1550 1550 1550 1550 1551 1551 1551 1551 1552 1552 1552 1553 1553 1553 1553 1554 1554 1554 1554
1520 1521 1521 1521 1521 1522 1523 1524 1525 1526 1527 1528 1529 1531 1532 1534 1536 1538 1539 1540 1542 1543 1545 1546 1547 1548 1548 1549 1550 1550 1551 1551 1551 1552 1552 1552 1553 1553 1553 1553 1553 1554 1554 1554 1555 1555 1555 1555 1555
1520 1522 1523 1522 1522 1523 1524 1527 1526 1526 1527 1528 1530 1531 1533 1535 1536 1537 1539 1540 1542 1544 1545 1546 1547 1548 1549 1550 1551 1551 1552 1552 1552 1553 1553 1553 1554 1554 1554 1554 1555 1555 1555 1555 1556 1556 1556 1556 1556
1522 1527 1531 1526 1524 1524 1528 1533 1526 1526 1527 1529 1530 1532 1533 1535 1536 1537 1539 1541 1542 1544 1545 1547 1548 1549 1550 1550 1551 1552 1552 1553 1553 1554 1554 1554 1555 1555 1555 1555 1555 1556 1556 1556 1556 1557 1557 1557 1557
1530 1535 1534 1530 1525 1525 1528 1532 1526 1526 1527 1528 1530 1531 1532 1534 1535 1537 1538 1540 1542 1544 1545 1547 1548 1549 1550 1551 1552 1552 1553 1553 1554 1554 1555 1555 1555 1556 1556 1556 1556 1556 1557 1557 1557 1557 1557 1558 1558
1536 1535 1535 1533 1528 1527 1530 1530 1526 1526 1527 1528 1529 1530 1531 1532 1534 1536 1538 1540 1542 1544 1545 1547 1548 1549 1550 1551 1552 1553 1553 1554 1554 1555 1555 1555 1556 1556 1556 1556 1556 1557 1557 1557 1557 1558 1558 1558 1558
1529 1533 1536 1532 1527 1529 1531 1530 1527 1526 1526 1527 1528 1529 1530 1531 1533 1535 1537 1539 1541 1543 1544 1546 1547 1549 1550 1551 1552 1553 1553 1554 1554 1555 1555 1556 1556 1556 1556 1556 1557 1557 1557 1557 1558 1558 1558 1558 1559
1529 1534 1535 1532 1527 1529 1531 1530 1525 1524 1525 1524 1525 1526 1528 1529 1531 1533 1535 1537 1539 1541 1543 1545 1547 1548 1549 1551 1552 1553 1553 1554 1554 1555 1555 1556 1556 1556 1556 1556 1557 1557 1557 1557 1558 1558 1558 1559 1559
1531 1534 1534 1534 1531 1530 1532 1534 1528 1524 1523 1523 1524 1525 1526 1528 1529 1531 1533 1535 1538 1540 1541 1543 1545 1547 1549 1550 1551 1552 1553 1554 1554 1555 1555 1556 1556 1556 1556 1556 1557 1557 1557 1557 1558 1558 1558 1558 1559
1534 1528 1529 1531 1537 1542 1538 1547 1532 1527 1524 1522 1522 1522 1523 1525 1527 1529 1531 1533 1535 1538 1540 1542 1544 1546 1548 1549 1550 1551 1552 1552 1553 1554 1555 1555 1555 1556 1556 1556 1556 1557 1557 1557 1557 1558 1558 1558 1559
1529 1526 1529 1532 1537 1543 1541 1546 1539 1529 1526 1522 1520 1520 1521 1522 1524 1526 1528 1531 1533 1536 1538 1540 1543 1545 1546 1548 1549 1550 1551 1552 1553 1553 1554 1554 1555 1555 1555 1556 1556 1556 1556 1557 1557 1557 1558 1558 1558
1525 1529 1533 1538 1542 1551 1544 1547 1543 1532 1525 1521 1518 1518 1519 1521 1523 1525 1527 1530 1532 1534 1537 1539 1541 1543 1545 1546 1548 1549 1550 1551 1551 1552 1553 1553 1554 1554 1554 1555 1556 1556 1556 1556 1556 1557 1557 1557 1557
1528 1540 1553 1554 1558 1554 1543 1544 1539 1524 1520 1518 1517 1517 1517 1519 1521 1523 1526 1528 1530 1532 1535 1537 1539 1541 1543 1545 1546 1548 1549 1550 1550 1551 1552 1552 1552 1553 1554 1554 1554 1555 1555 1555 1555 1556 1556 1556 1556
1531 1537 1553 1560 1561 1555 1544 1544 1532 1520 1517 1516 1516 1516 1517 1518 1520 1522 1524 1526 1528 1530 1533 1535 1537 1539 1542 1543 1545 1546 1548 1548 1549 1550 1551 1551 1551 1552 1553 1553 1553 1554 1554 1554 1554 1555 1555 1555 1555
1531 1537 1536 1548 1551 1556 1549 1539 1527 1518 1517 1517 1516 1516 1517 1518 1519 1521 1523 1525 1527 1529 1531 1533 1536 1538 1540 1542 1543 1545 1546 1547 1548 1549 1549 1550 1550 1551 1551 1552 1552 1553 1553 1553 1553 1554 1554 1554 1554
1526 1531 1541 1548 1556 1560 1551 1544 1537 1524 1520 1518 1517 1516 1516 1517 1519 1520 1522 1524 1526 1528 1530 1532 1534 1536 1538 1540 1542 1543 1545 1546 1547 1548 1548 1549 1549 1550 1550 1551 1551 1551 1552 1552 1552 1552 1553 1553 1553
1530 1533 1538 1546 1548 1557 1558 1547 1523 1521 1518 1517 1516 1515 1515 1516 1517 1519 1521 1523 1525 1527 1529 1531 1532 1534 1536 1538 1540 1542 1543 1544 1545 1546 1547 1547 1548 1548 1549 1549 1550 1550 1550 1550 1551 1551 1551 1551 1552
1524 1528 1536 1545 1549 1550 1554 1546 1517 1517 1516 1516 1515 1514 1514 1515 1516 1518 1520 1522 1524 1525 1527 1529 1531 1533 1534 1536 1538 1540 1541 1543 1544 1544 1545 1546 1546 1547 1547 1548 1548 1548 1549 1549 1549 1549 1549 1550 1550